• In Netherlands
  • List of Countries
  • For 7 days
  • Water Temperature
  • Satellite Maps
  • Weather Map
  • Weather Widgets
  • user-avatar
    Login

    Hourly Weather Bregenz

    Today, 26 May, Saturday

    Time Temperature Precipitation Wind Pressure Humidity
    00:00 +9°C° 0 mm 2 mps 648 mmHg 79%
    01:00 +9°C° 0 mm 2 mps 648 mmHg 74%
    02:00 +9°C° 0 mm 2 mps 648 mmHg 74%
    03:00 +9°C° 0 mm 2 mps 648 mmHg 74%
    04:00 +8°C° 0 mm 2 mps 648 mmHg 75%
    05:00 +11°C° 0 mm 1 mps 649 mmHg 73%
    06:00 +12°C° 0 mm 1 mps 649 mmHg 72%
    07:00 +14°C° 0 mm 1 mps 650 mmHg 68%
    08:00 +16°C° 0 mm 1 mps 650 mmHg 61%
    09:00 +19°C° 0 mm 1 mps 651 mmHg 55%
    10:00 +21°C° 0 mm 1 mps 651 mmHg 49%
    11:00 +22°C° 0 mm 1 mps 652 mmHg 47%
    12:00 +22°C° 0 mm 1 mps 652 mmHg 44%
    13:00 +23°C° 0 mm 2 mps 652 mmHg 41%
    14:00 +23°C° 0.1 mm 2 mps 652 mmHg 43%
    15:00 +23°C° 0.1 mm 2 mps 652 mmHg 45%
    16:00 +23°C° 0.1 mm 2 mps 652 mmHg 47%
    17:00 +20°C° 0.3 mm 2 mps 651 mmHg 57%
    18:00 +19°C° 0.3 mm 1 mps 651 mmHg 66%
    19:00 +16°C° 0.3 mm 1 mps 651 mmHg 76%
    20:00 +15°C° 0.2 mm 1 mps 650 mmHg 78%
    21:00 +14°C° 0.2 mm 1 mps 650 mmHg 80%
    22:00 +13°C° 0.2 mm 1 mps 650 mmHg 83%
    23:00 +13°C° 0 mm 1 mps 650 mmHg 82%

    Tomorrow, 27 May, Sunday

    Time Temperature Precipitation Wind Pressure Humidity
    00:00 +12°C° 0 mm 1 mps 650 mmHg 81%
    01:00 +12°C° 0 mm 2 mps 650 mmHg 80%
    02:00 +12°C° 0 mm 1 mps 650 mmHg 79%
    03:00 +12°C° 0 mm 1 mps 649 mmHg 78%
    04:00 +12°C° 0 mm 1 mps 649 mmHg 77%
    05:00 +13°C° 0 mm 1 mps 649 mmHg 76%
    06:00 +14°C° 0 mm 1 mps 650 mmHg 74%
    07:00 +15°C° 0 mm 1 mps 650 mmHg 72%
    08:00 +16°C° 0 mm 1 mps 650 mmHg 65%
    09:00 +19°C° 0 mm 1 mps 651 mmHg 58%
    10:00 +21°C° 0 mm 1 mps 651 mmHg 51%
    11:00 +22°C° 0.1 mm 1 mps 651 mmHg 49%
    12:00 +22°C° 0.1 mm 1 mps 651 mmHg 47%
    13:00 +23°C° 0.1 mm 1 mps 651 mmHg 45%
    14:00 +23°C° 0.1 mm 1 mps 651 mmHg 47%
    15:00 +23°C° 0.1 mm 1 mps 650 mmHg 49%
    16:00 +23°C° 0.1 mm 2 mps 650 mmHg 51%
    17:00 +20°C° 0.3 mm 2 mps 650 mmHg 60%
    18:00 +19°C° 0.3 mm 2 mps 650 mmHg 68%
    19:00 +17°C° 0.3 mm 2 mps 649 mmHg 77%
    20:00 +16°C° 0.1 mm 2 mps 649 mmHg 78%
    21:00 +15°C° 0.1 mm 2 mps 649 mmHg 80%
    22:00 +13°C° 0.1 mm 2 mps 649 mmHg 81%
    23:00 +13°C° 0.1 mm 2 mps 649 mmHg 81%

    Day after tomorrow, 28 May, Monday

    Time Temperature Precipitation Wind Pressure Humidity
    00:00 +13°C° 0.1 mm 2 mps 649 mmHg 80%
    01:00 +12°C° 0.1 mm 2 mps 649 mmHg 79%
    02:00 +12°C° 0 mm 2 mps 648 mmHg 79%
    03:00 +10°C° 0 mm 2 mps 648 mmHg 78%
    04:00 +10°C° 0 mm 2 mps 648 mmHg 78%
    05:00 +12°C° 0 mm 1 mps 648 mmHg 75%
    06:00 +14°C° 0 mm 1 mps 649 mmHg 73%
    07:00 +15°C° 0 mm 1 mps 649 mmHg 71%
    08:00 +18°C° 0 mm 1 mps 650 mmHg 64%
    09:00 +20°C° 0 mm 1 mps 650 mmHg 57%
    10:00 +22°C° 0 mm 1 mps 651 mmHg 51%
    11:00 +23°C° 0.1 mm 1 mps 651 mmHg 49%
    12:00 +24°C° 0.1 mm 1 mps 651 mmHg 47%
    13:00 +25°C° 0.1 mm 2 mps 651 mmHg 44%
    14:00 +24°C° 0.4 mm 2 mps 650 mmHg 49%
    15:00 +23°C° 0.4 mm 2 mps 650 mmHg 54%
    16:00 +21°C° 0.4 mm 2 mps 650 mmHg 58%
    17:00 +20°C° 0.5 mm 2 mps 649 mmHg 65%
    18:00 +19°C° 0.5 mm 1 mps 649 mmHg 73%
    19:00 +18°C° 0.5 mm 1 mps 648 mmHg 80%
    20:00 +16°C° 0 mm 1 mps 648 mmHg 81%
    21:00 +15°C° 0 mm 2 mps 648 mmHg 82%
    22:00 +14°C° 0 mm 2 mps 648 mmHg 83%
    23:00 +13°C° 0 mm 2 mps 648 mmHg 82%

    29 May, Tuesday

    Time Temperature Precipitation Wind Pressure Humidity
    00:00 +13°C° 0 mm 2 mps 648 mmHg 82%
    01:00 +13°C° 0 mm 2 mps 648 mmHg 81%
    02:00 +12°C° 0.1 mm 2 mps 648 mmHg 82%
    03:00 +12°C° 0.1 mm 2 mps 648 mmHg 82%
    04:00 +12°C° 0.1 mm 2 mps 647 mmHg 83%
    05:00 +13°C° 0 mm 2 mps 648 mmHg 80%
    06:00 +14°C° 0 mm 1 mps 648 mmHg 77%
    07:00 +15°C° 0 mm 1 mps 648 mmHg 74%
    08:00 +18°C° 0.1 mm 1 mps 648 mmHg 69%
    09:00 +19°C° 0.1 mm 1 mps 649 mmHg 64%
    10:00 +21°C° 0.1 mm 1 mps 649 mmHg 59%
    11:00 +20°C° 0.7 mm 2 mps 649 mmHg 60%
    12:00 +20°C° 0.7 mm 2 mps 649 mmHg 60%
    13:00 +21°C° 0.7 mm 2 mps 648 mmHg 61%
    14:00 +20°C° 1.3 mm 2 mps 648 mmHg 66%
    15:00 +20°C° 1.3 mm 1 mps 648 mmHg 71%
    16:00 +19°C° 1.3 mm 1 mps 647 mmHg 76%
    17:00 +19°C° 0.6 mm 1 mps 647 mmHg 79%
    18:00 +18°C° 0.6 mm 1 mps 647 mmHg 82%
    19:00 +15°C° 0.6 mm 0 mps 647 mmHg 86%
    20:00 +15°C° 0.2 mm 1 mps 647 mmHg 87%
    21:00 +14°C° 0.2 mm 1 mps 646 mmHg 88%
    22:00 +12°C° 0.2 mm 1 mps 646 mmHg 90%
    23:00 +12°C° 0.2 mm 2 mps 646 mmHg 90%

    30 May, Wednesday

    Time Temperature Precipitation Wind Pressure Humidity
    00:00 +10°C° 0.2 mm 2 mps 646 mmHg 90%
    01:00 +10°C° 0.2 mm 2 mps 646 mmHg 90%
    02:00 +10°C° 0 mm 2 mps 645 mmHg 89%
    03:00 +9°C° 0 mm 2 mps 645 mmHg 89%
    04:00 +10°C° 0 mm 1 mps 645 mmHg 88%
    05:00 +12°C° 0 mm 1 mps 645 mmHg 84%
    06:00 +13°C° 0 mm 1 mps 646 mmHg 81%
    07:00 +15°C° 0 mm 1 mps 646 mmHg 77%
    08:00 +16°C° 0.1 mm 1 mps 647 mmHg 70%
    09:00 +19°C° 0.1 mm 1 mps 647 mmHg 62%
    10:00 +21°C° 0.1 mm 1 mps 647 mmHg 55%
    11:00 +22°C° 0.4 mm 1 mps 647 mmHg 55%
    12:00 +21°C° 0.4 mm 2 mps 647 mmHg 55%
    13:00 +23°C° 0.4 mm 2 mps 647 mmHg 54%
    14:00 +21°C° 0.9 mm 2 mps 647 mmHg 58%
    15:00 +21°C° 0.9 mm 2 mps 647 mmHg 62%
    16:00 +20°C° 0.9 mm 2 mps 646 mmHg 66%
    17:00 +20°C° 1 mm 1 mps 646 mmHg 72%
    18:00 +19°C° 1 mm 1 mps 646 mmHg 79%
    19:00 +16°C° 1 mm 1 mps 646 mmHg 86%
    20:00 +15°C° 0.4 mm 1 mps 646 mmHg 87%
    21:00 +14°C° 0.4 mm 1 mps 646 mmHg 88%
    22:00 +13°C° 0.4 mm 2 mps 646 mmHg 89%
    23:00 +12°C° 0.2 mm 2 mps 645 mmHg 89%

    31 May, Thursday

    Time Temperature Precipitation Wind Pressure Humidity
    00:00 +12°C° 0.2 mm 2 mps 645 mmHg 89%
    01:00 +10°C° 0.2 mm 2 mps 645 mmHg 89%
    02:00 +10°C° 0.1 mm 2 mps 645 mmHg 89%
    03:00 +10°C° 0.1 mm 2 mps 645 mmHg 89%
    04:00 +10°C° 0.1 mm 1 mps 645 mmHg 89%
    05:00 +12°C° 0.1 mm 1 mps 646 mmHg 86%
    06:00 +13°C° 0.1 mm 1 mps 646 mmHg 83%
    07:00 +14°C° 0.1 mm 1 mps 647 mmHg 80%
    08:00 +16°C° 0.1 mm 1 mps 647 mmHg 74%
    09:00 +19°C° 0.1 mm 1 mps 647 mmHg 69%
    10:00 +20°C° 0.1 mm 1 mps 648 mmHg 63%
    11:00 +21°C° 0.3 mm 1 mps 648 mmHg 61%
    12:00 +21°C° 0.3 mm 1 mps 648 mmHg 60%
    13:00 +21°C° 0.3 mm 2 mps 647 mmHg 58%
    14:00 +20°C° 1.1 mm 2 mps 647 mmHg 63%
    15:00 +20°C° 1.1 mm 2 mps 647 mmHg 68%
    16:00 +19°C° 1.1 mm 2 mps 647 mmHg 73%
    17:00 +18°C° 1.4 mm 2 mps 647 mmHg 78%
    18:00 +18°C° 1.4 mm 1 mps 647 mmHg 83%
    19:00 +16°C° 1.4 mm 1 mps 647 mmHg 88%
    20:00 +14°C° 0.5 mm 2 mps 646 mmHg 90%
    21:00 +13°C° 0.5 mm 2 mps 646 mmHg 93%
    22:00 +10°C° 0.5 mm 2 mps 646 mmHg 95%
    23:00 +10°C° 0.1 mm 2 mps 647 mmHg 96%
    Show more